| time (UTC) | temp C | wind direction | speed KPH | gust KPH | rain 1hr cm | rain 24hr cm | rain mn cm | humidity % | barometer mb |
| 20260506071138 | 16 | 318 | 0.0 | 0.0 | 0.00 | 0.00 | 0.00 | 62 | 1004.5 |
| 20260506070634 | 17 | 329 | 0.0 | 0.0 | 0.00 | 0.00 | 0.00 | 60 | 1004.5 |
| 20260506070131 | 17 | 296 | 0.0 | 1.6 | 0.00 | 0.00 | 0.00 | 59 | 1004.6 |
| 20260506062109 | 17 | 161 | 3.2 | 4.8 | 0.00 | 0.00 | 0.00 | 56 | 1005.0 |
| 20260506061604 | 17 | 182 | 4.8 | 6.4 | 0.00 | 0.00 | 0.00 | 56 | 1005.2 |
| 20260506061102 | 17 | 153 | 3.2 | 3.2 | 0.00 | 0.00 | 0.00 | 57 | 1005.1 |
| 20260506060601 | 17 | 140 | 1.6 | 1.6 | 0.00 | 0.00 | 0.00 | 57 | 1005.3 |
| 20260506051029 | 18 | 159 | 3.2 | 4.8 | 0.00 | 0.00 | 0.00 | 53 | 1005.8 |
| 20260506050527 | 18 | 186 | 1.6 | 3.2 | 0.00 | 0.00 | 0.00 | 54 | 1005.5 |
| 20260506045018 | 18 | 183 | 1.6 | 3.2 | 0.00 | 0.00 | 0.00 | 52 | 1005.6 |
| 20260506044516 | 18 | 173 | 3.2 | 3.2 | 0.00 | 0.00 | 0.00 | 52 | 1005.5 |
| 20260506044012 | 18 | 239 | 3.2 | 3.2 | 0.00 | 0.00 | 0.00 | 53 | 1005.5 |
| 20260506043509 | 18 | 55 | 3.2 | 4.8 | 0.00 | 0.00 | 0.00 | 53 | 1005.4 |
| 20260506043008 | 18 | 194 | 3.2 | 3.2 | 0.00 | 0.00 | 0.00 | 52 | 1005.6 |
| 20260506042506 | 18 | 189 | 3.2 | 3.2 | 0.00 | 0.00 | 0.00 | 51 | 1005.5 |
| 20260506042004 | 17 | 230 | 4.8 | 9.7 | 0.00 | 0.00 | 0.00 | 54 | 1005.5 |
| 20260506041502 | 17 | 177 | 3.2 | 3.2 | 0.00 | 0.00 | 0.00 | 53 | 1005.6 |
| 20260506040959 | 17 | 140 | 3.2 | 4.8 | 0.00 | 0.00 | 0.00 | 54 | 1005.5 |
| 20260506040456 | 18 | 166 | 0.0 | 1.6 | 0.00 | 0.00 | 0.00 | 53 | 1005.4 |
| 20260506035952 | 17 | 181 | 0.0 | 1.6 | 0.00 | 0.20 | 0.20 | 54 | 1005.7 |
| 20260506035449 | 16 | 308 | 0.0 | 0.0 | 0.00 | 0.20 | 0.20 | 57 | 1005.6 |
| 20260506034946 | 16 | 46 | 0.0 | 1.6 | 0.00 | 0.20 | 0.20 | 60 | 1005.6 |
| 20260506034443 | 16 | 97 | 1.6 | 1.6 | 0.00 | 0.20 | 0.20 | 58 | 1005.8 |
| 20260506033940 | 16 | 252 | 3.2 | 3.2 | 0.00 | 0.20 | 0.20 | 58 | 1005.7 |
| 20260506033438 | 16 | 19 | 0.0 | 0.0 | 0.00 | 0.20 | 0.20 | 60 | 1005.7 |
| 20260506032934 | 16 | 78 | 0.0 | 0.0 | 0.00 | 0.20 | 0.20 | 60 | 1005.5 |
| 20260506032432 | 17 | 79 | 0.0 | 0.0 | 0.00 | 0.20 | 0.20 | 58 | 1005.5 |
| 20260506031928 | 17 | 320 | 0.0 | 0.0 | 0.00 | 0.20 | 0.20 | 57 | 1005.5 |
| 20260506031425 | 17 | 356 | 0.0 | 0.0 | 0.00 | 0.20 | 0.20 | 55 | 1005.6 |
| 20260506030923 | 17 | 291 | 0.0 | 0.0 | 0.00 | 0.20 | 0.20 | 55 | 1005.7 |
| 20260506030421 | 17 | 24 | 0.0 | 0.0 | 0.00 | 0.20 | 0.20 | 56 | 1005.5 |
| 20260506025917 | 17 | 21 | 0.0 | 0.0 | 0.00 | 0.20 | 0.20 | 54 | 1005.6 |
| 20260506025415 | 17 | 35 | 1.6 | 1.6 | 0.00 | 0.20 | 0.20 | 56 | 1005.5 |
| 20260506024911 | 17 | 193 | 1.6 | 1.6 | 0.00 | 0.20 | 0.20 | 55 | 1005.6 |
| 20260506024408 | 17 | 46 | 0.0 | 1.6 | 0.00 | 0.20 | 0.20 | 55 | 1005.7 |
| 20260506023904 | 18 | 356 | 0.0 | 0.0 | 0.00 | 0.20 | 0.20 | 54 | 1005.6 |
| 20260506023401 | 17 | 24 | 0.0 | 1.6 | 0.00 | 0.20 | 0.20 | 55 | 1005.7 |
| 20260506022857 | 18 | 6 | 0.0 | 0.0 | 0.00 | 0.20 | 0.20 | 55 | 1005.6 |
| 20260506022356 | 18 | 82 | 0.0 | 0.0 | 0.00 | 0.20 | 0.20 | 53 | 1005.8 |
| 20260506021853 | 18 | 3 | 0.0 | 0.0 | 0.00 | 0.20 | 0.20 | 53 | 1005.6 |
| 20260506021350 | 18 | 251 | 0.0 | 0.0 | 0.00 | 0.20 | 0.20 | 52 | 1005.6 |
| 20260506020846 | 18 | 176 | 3.2 | 3.2 | 0.00 | 0.20 | 0.20 | 51 | 1005.5 |
| 20260506020345 | 18 | 40 | 0.0 | 0.0 | 0.00 | 0.20 | 0.20 | 54 | 1005.5 |
| 20260506015842 | 18 | 355 | 0.0 | 0.0 | 0.00 | 0.20 | 0.20 | 52 | 1005.6 |
| 20260506015339 | 18 | 39 | 0.0 | 0.0 | 0.00 | 0.20 | 0.20 | 50 | 1005.6 |
| 20260506014836 | 19 | 107 | 0.0 | 0.0 | 0.00 | 0.20 | 0.20 | 50 | 1005.6 |
| 20260506014333 | 20 | 166 | 0.0 | 1.6 | 0.00 | 0.20 | 0.20 | 50 | 1005.6 |
| 20260506013829 | 20 | 154 | 1.6 | 3.2 | 0.00 | 0.20 | 0.20 | 47 | 1005.6 |
| 20260506013327 | 20 | 206 | 0.0 | 0.0 | 0.00 | 0.20 | 0.20 | 48 | 1005.6 |
| 20260506012823 | 20 | 227 | 0.0 | 0.0 | 0.00 | 0.20 | 0.20 | 46 | 1005.4 |
| 20260506012321 | 21 | 156 | 0.0 | 0.0 | 0.00 | 0.20 | 0.20 | 45 | 1005.3 |
| 20260506011818 | 21 | 119 | 4.8 | 9.7 | 0.00 | 0.20 | 0.20 | 44 | 1005.4 |
| 20260506011314 | 21 | 172 | 0.0 | 0.0 | 0.00 | 0.20 | 0.20 | 45 | 1005.2 |
| 20260506010812 | 21 | 177 | 3.2 | 4.8 | 0.00 | 0.20 | 0.20 | 43 | 1005.2 |
| 20260506010309 | 21 | 225 | 1.6 | 3.2 | 0.00 | 0.20 | 0.20 | 44 | 1005.2 |
| 20260506005806 | 21 | 161 | 1.6 | 1.6 | 0.00 | 0.20 | 0.20 | 44 | 1005.0 |
| 20260506005305 | 21 | 190 | 4.8 | 4.8 | 0.00 | 0.20 | 0.20 | 42 | 1005.0 |
| 20260506004759 | 22 | 151 | 4.8 | 6.4 | 0.00 | 0.20 | 0.20 | 43 | 1005.0 |
| 20260506004257 | 22 | 120 | 1.6 | 1.6 | 0.00 | 0.20 | 0.20 | 43 | 1005.0 |
| 20260506003752 | 22 | 184 | 9.7 | 11.3 | 0.00 | 0.20 | 0.20 | 42 | 1005.1 |
| 20260506003249 | 22 | 187 | 4.8 | 4.8 | 0.00 | 0.20 | 0.20 | 42 | 1004.8 |
| 20260506002745 | 22 | 190 | 1.6 | 4.8 | 0.00 | 0.20 | 0.20 | 42 | 1004.6 |
| 20260506002241 | 22 | 172 | 8.0 | 9.7 | 0.00 | 0.20 | 0.20 | 43 | 1004.7 |
| 20260506001737 | 22 | 254 | 4.8 | 6.4 | 0.00 | 0.20 | 0.20 | 43 | 1004.6 |
| 20260506001235 | 22 | 238 | 8.0 | 9.7 | 0.00 | 0.20 | 0.20 | 43 | 1004.4 |
| 20260506000732 | 22 | 179 | 6.4 | 11.3 | 0.00 | 0.20 | 0.20 | 44 | 1004.7 |
| 20260506000229 | 22 | 217 | 12.9 | 14.5 | 0.00 | 0.20 | 0.20 | 43 | 1004.6 |
| 20260505235726 | 22 | 117 | 3.2 | 4.8 | 0.00 | 0.20 | 0.20 | 44 | 1004.6 |
| 20260505235224 | 22 | 132 | 6.4 | 9.7 | 0.00 | 0.20 | 0.20 | 44 | 1004.5 |
| 20260505234721 | 22 | 198 | 3.2 | 4.8 | 0.00 | 0.20 | 0.20 | 44 | 1004.4 |
| 20260505234218 | 22 | 136 | 8.0 | 11.3 | 0.00 | 0.20 | 0.20 | 44 | 1004.6 |
| 20260505233714 | 22 | 256 | 3.2 | 3.2 | 0.00 | 0.20 | 0.20 | 44 | 1004.1 |
| 20260505233213 | 22 | 215 | 4.8 | 6.4 | 0.00 | 0.20 | 0.20 | 44 | 1004.2 |
| 20260505232709 | 23 | 214 | 12.9 | 16.1 | 0.00 | 0.20 | 0.20 | 43 | 1004.4 |
| 20260505232207 | 22 | 98 | 4.8 | 6.4 | 0.00 | 0.20 | 0.20 | 44 | 1004.4 |
| 20260505231703 | 23 | 241 | 3.2 | 4.8 | 0.00 | 0.20 | 0.20 | 44 | 1004.3 |
| 20260505231203 | 23 | 142 | 8.0 | 11.3 | 0.00 | 0.20 | 0.20 | 43 | 1004.3 |
| 20260505230700 | 23 | 166 | 8.0 | 12.9 | 0.00 | 0.20 | 0.20 | 43 | 1004.2 |
| 20260505230156 | 23 | 261 | 16.1 | 20.9 | 0.00 | 0.20 | 0.20 | 43 | 1004.1 |
| 20260505225653 | 23 | 236 | 8.0 | 11.3 | 0.00 | 0.20 | 0.20 | 43 | 1004.2 |
| 20260505225149 | 23 | 200 | 6.4 | 11.3 | 0.00 | 0.20 | 0.20 | 43 | 1004.1 |
| 20260505224645 | 23 | 303 | 4.8 | 6.4 | 0.00 | 0.20 | 0.20 | 43 | 1004.3 |
| 20260505224143 | 23 | 168 | 9.7 | 14.5 | 0.00 | 0.20 | 0.20 | 43 | 1004.1 |
| 20260505223641 | 23 | 180 | 11.3 | 14.5 | 0.00 | 0.20 | 0.20 | 42 | 1004.2 |
| 20260505223136 | 23 | 172 | 11.3 | 14.5 | 0.00 | 0.20 | 0.20 | 43 | 1004.2 |
| 20260505222632 | 23 | 156 | 6.4 | 12.9 | 0.00 | 0.20 | 0.20 | 43 | 1004.1 |
| 20260505222129 | 23 | 229 | 8.0 | 9.7 | 0.00 | 0.20 | 0.20 | 43 | 1004.0 |
| 20260505221626 | 23 | 158 | 8.0 | 9.7 | 0.00 | 0.20 | 0.20 | 44 | 1004.3 |
| 20260505221122 | 23 | 181 | 9.7 | 11.3 | 0.00 | 0.20 | 0.20 | 44 | 1004.3 |
| 20260505220620 | 23 | 148 | 9.7 | 12.9 | 0.00 | 0.20 | 0.20 | 43 | 1004.1 |
| 20260505220117 | 23 | 226 | 6.4 | 9.7 | 0.00 | 0.20 | 0.20 | 43 | 1004.0 |
| 20260505215615 | 23 | 181 | 6.4 | 11.3 | 0.00 | 0.20 | 0.20 | 43 | 1003.9 |
| 20260505215113 | 23 | 269 | 17.7 | 22.5 | 0.00 | 0.20 | 0.20 | 43 | 1004.3 |
| 20260505214611 | 24 | 194 | 11.3 | 12.9 | 0.00 | 0.20 | 0.20 | 44 | 1004.0 |
| 20260505214108 | 24 | 191 | 6.4 | 9.7 | 0.00 | 0.20 | 0.20 | 44 | 1004.0 |
| 20260505213605 | 23 | 140 | 4.8 | 6.4 | 0.00 | 0.20 | 0.20 | 45 | 1004.0 |
| 20260505213101 | 23 | 172 | 6.4 | 9.7 | 0.00 | 0.20 | 0.20 | 44 | 1003.9 |
| 20260505212552 | 23 | 199 | 3.2 | 4.8 | 0.00 | 0.20 | 0.20 | 46 | 1004.1 |
| 20260505212050 | 23 | 204 | 11.3 | 12.9 | 0.00 | 0.20 | 0.20 | 44 | 1004.0 |
| 20260505211546 | 23 | 188 | 8.0 | 11.3 | 0.00 | 0.20 | 0.20 | 45 | 1003.9 |
| 20260505211043 | 23 | 207 | 14.5 | 17.7 | 0.00 | 0.20 | 0.20 | 44 | 1003.9 |
| 20260505210540 | 23 | 215 | 12.9 | 17.7 | 0.00 | 0.20 | 0.20 | 44 | 1004.1 |
| 20260505210037 | 23 | 228 | 6.4 | 9.7 | 0.00 | 0.20 | 0.20 | 44 | 1003.9 |
| 20260505205535 | 23 | 186 | 1.6 | 3.2 | 0.00 | 0.20 | 0.20 | 44 | 1003.9 |
| 20260505205032 | 24 | 235 | 8.0 | 12.9 | 0.00 | 0.20 | 0.20 | 43 | 1003.7 |
| 20260505204530 | 24 | 260 | 6.4 | 9.7 | 0.00 | 0.20 | 0.20 | 43 | 1003.7 |
| 20260505204027 | 23 | 190 | 9.7 | 14.5 | 0.00 | 0.20 | 0.20 | 43 | 1003.8 |
| 20260505203523 | 24 | 210 | 16.1 | 22.5 | 0.00 | 0.20 | 0.20 | 43 | 1004.1 |
| 20260505203021 | 24 | 234 | 6.4 | 11.3 | 0.00 | 0.20 | 0.20 | 45 | 1003.9 |
| 20260505202516 | 23 | 228 | 9.7 | 12.9 | 0.00 | 0.20 | 0.20 | 43 | 1004.0 |
| 20260505202012 | 24 | 239 | 8.0 | 14.5 | 0.00 | 0.20 | 0.20 | 43 | 1003.8 |
| 20260505201510 | 24 | 164 | 14.5 | 22.5 | 0.00 | 0.20 | 0.20 | 43 | 1003.9 |
| 20260505201007 | 25 | 264 | 8.0 | 12.9 | 0.00 | 0.20 | 0.20 | 43 | 1003.8 |
| 20260505200505 | 23 | 206 | 11.3 | 16.1 | 0.00 | 0.20 | 0.20 | 43 | 1004.2 |
| 20260505200001 | 25 | 218 | 11.3 | 16.1 | 0.00 | 0.20 | 0.20 | 43 | 1004.0 |
| 20260505195458 | 25 | 223 | 1.6 | 3.2 | 0.00 | 0.20 | 0.20 | 45 | 1003.9 |
| 20260505194955 | 25 | 2 | 4.8 | 6.4 | 0.00 | 0.20 | 0.20 | 46 | 1004.0 |
| 20260505194453 | 25 | 157 | 4.8 | 6.4 | 0.00 | 0.20 | 0.20 | 44 | 1004.0 |
| 20260505193952 | 25 | 163 | 20.9 | 37.0 | 0.00 | 0.20 | 0.20 | 42 | 1004.0 |
| 20260505193450 | 25 | 227 | 14.5 | 17.7 | 0.00 | 0.20 | 0.20 | 41 | 1003.8 |
| 20260505192947 | 25 | 188 | 8.0 | 11.3 | 0.00 | 0.20 | 0.20 | 42 | 1004.0 |
| 20260505192446 | 25 | 129 | 8.0 | 9.7 | 0.00 | 0.20 | 0.20 | 43 | 1004.1 |
| 20260505191943 | 25 | 182 | 12.9 | 16.1 | 0.00 | 0.20 | 0.20 | 42 | 1004.2 |
| 20260505191442 | 24 | 79 | 4.8 | 6.4 | 0.00 | 0.20 | 0.20 | 43 | 1004.1 |
| 20260505190938 | 24 | 164 | 8.0 | 20.9 | 0.00 | 0.20 | 0.20 | 43 | 1004.4 |
| 20260505190433 | 25 | 224 | 19.3 | 24.1 | 0.00 | 0.20 | 0.20 | 42 | 1004.4 |
| 20260505185929 | 25 | 144 | 14.5 | 20.9 | 0.00 | 0.20 | 0.20 | 44 | 1004.5 |
| 20260505185427 | 25 | 218 | 8.0 | 12.9 | 0.00 | 0.20 | 0.20 | 42 | 1004.4 |
| 20260505184923 | 23 | 168 | 6.4 | 9.7 | 0.00 | 0.20 | 0.20 | 44 | 1004.5 |
| 20260505184420 | 23 | 189 | 14.5 | 14.5 | 0.00 | 0.20 | 0.20 | 44 | 1004.9 |
| 20260505183916 | 23 | 219 | 11.3 | 14.5 | 0.00 | 0.20 | 0.20 | 44 | 1004.7 |
| 20260505183413 | 23 | 211 | 6.4 | 9.7 | 0.00 | 0.20 | 0.20 | 45 | 1004.8 |
| 20260505182910 | 23 | 234 | 4.8 | 6.4 | 0.00 | 0.20 | 0.20 | 45 | 1004.9 |
| 20260505182407 | 24 | 244 | 11.3 | 14.5 | 0.00 | 0.20 | 0.20 | 42 | 1004.8 |
| 20260505181903 | 25 | 348 | 6.4 | 9.7 | 0.00 | 0.20 | 0.20 | 42 | 1004.9 |
| 20260505181401 | 25 | 70 | 11.3 | 16.1 | 0.00 | 0.20 | 0.20 | 41 | 1004.9 |
| 20260505180857 | 25 | 143 | 8.0 | 9.7 | 0.00 | 0.20 | 0.20 | 41 | 1005.2 |
| 20260505180354 | 25 | 214 | 9.7 | 12.9 | 0.00 | 0.20 | 0.20 | 40 | 1005.4 |
| 20260505175850 | 25 | 68 | 8.0 | 11.3 | 0.00 | 0.20 | 0.20 | 39 | 1004.9 |
| 20260505175347 | 25 | 172 | 11.3 | 17.7 | 0.00 | 0.20 | 0.20 | 40 | 1005.0 |
| 20260505174843 | 25 | 153 | 22.5 | 29.0 | 0.00 | 0.20 | 0.20 | 41 | 1005.2 |
| 20260505174341 | 24 | 201 | 6.4 | 9.7 | 0.00 | 0.20 | 0.20 | 42 | 1005.2 |
| 20260505173836 | 24 | 171 | 8.0 | 12.9 | 0.00 | 0.20 | 0.20 | 40 | 1005.1 |
| 20260505173333 | 25 | 223 | 9.7 | 12.9 | 0.00 | 0.20 | 0.20 | 41 | 1005.0 |
| 20260505172831 | 24 | 97 | 12.9 | 17.7 | 0.00 | 0.20 | 0.20 | 41 | 1005.4 |
| 20260505172328 | 25 | 170 | 6.4 | 9.7 | 0.00 | 0.20 | 0.20 | 44 | 1005.2 |
| 20260505171827 | 23 | 259 | 12.9 | 17.7 | 0.00 | 0.20 | 0.20 | 45 | 1005.3 |
| 20260505171325 | 23 | 209 | 12.9 | 17.7 | 0.00 | 0.20 | 0.20 | 46 | 1005.4 |
| 20260505170821 | 23 | 177 | 9.7 | 12.9 | 0.00 | 0.20 | 0.20 | 47 | 1005.5 |
| 20260505170318 | 23 | 316 | 6.4 | 9.7 | 0.00 | 0.20 | 0.20 | 47 | 1005.3 |
| 20260505165814 | 24 | 277 | 4.8 | 9.7 | 0.00 | 0.20 | 0.20 | 46 | 1005.2 |
| 20260505165309 | 24 | 265 | 6.4 | 9.7 | 0.00 | 0.20 | 0.20 | 46 | 1005.3 |
| 20260505164805 | 23 | 223 | 8.0 | 11.3 | 0.00 | 0.20 | 0.20 | 47 | 1005.5 |
| 20260505164303 | 23 | 101 | 4.8 | 9.7 | 0.00 | 0.20 | 0.20 | 49 | 1005.6 |
| 20260505163801 | 23 | 241 | 12.9 | 14.5 | 0.00 | 0.20 | 0.20 | 49 | 1005.6 |
| 20260505163259 | 23 | 219 | 11.3 | 14.5 | 0.00 | 0.20 | 0.20 | 47 | 1005.8 |
| 20260505162756 | 23 | 209 | 8.0 | 11.3 | 0.00 | 0.20 | 0.20 | 47 | 1005.7 |
| 20260505162253 | 23 | 264 | 3.2 | 4.8 | 0.00 | 0.20 | 0.20 | 51 | 1005.5 |
| 20260505161750 | 23 | 228 | 3.2 | 3.2 | 0.00 | 0.20 | 0.20 | 52 | 1005.8 |
| 20260505161247 | 23 | 233 | 9.7 | 14.5 | 0.00 | 0.20 | 0.20 | 49 | 1005.7 |
| 20260505160744 | 23 | 276 | 16.1 | 17.7 | 0.00 | 0.20 | 0.20 | 50 | 1006.0 |
| 20260505160242 | 23 | 260 | 8.0 | 9.7 | 0.00 | 0.20 | 0.20 | 51 | 1006.0 |
| 20260505153221 | 23 | 292 | 1.6 | 1.6 | 0.00 | 0.20 | 0.20 | 54 | 1006.0 |
| 20260505152718 | 22 | 211 | 6.4 | 9.7 | 0.00 | 0.20 | 0.20 | 54 | 1006.4 |
| 20260505152214 | 22 | 316 | 3.2 | 4.8 | 0.00 | 0.20 | 0.20 | 56 | 1006.3 |
| 20260505151709 | 21 | 154 | 9.7 | 11.3 | 0.00 | 0.20 | 0.20 | 56 | 1006.5 |
| 20260505151207 | 21 | 161 | 8.0 | 11.3 | 0.00 | 0.20 | 0.20 | 57 | 1006.5 |
| 20260505150703 | 21 | 197 | 8.0 | 9.7 | 0.00 | 0.20 | 0.20 | 57 | 1006.5 |
| 20260505150201 | 21 | 205 | 3.2 | 4.8 | 0.00 | 0.20 | 0.20 | 59 | 1006.5 |
| 20260505140633 | 19 | 167 | 6.4 | 9.7 | 0.00 | 0.20 | 0.20 | 65 | 1006.5 |
| 20260505140131 | 19 | 176 | 4.8 | 6.4 | 0.00 | 0.20 | 0.20 | 65 | 1006.6 |
| 20260505124544 | 16 | 59 | 3.2 | 3.2 | 0.00 | 0.20 | 0.20 | 74 | 1006.6 |
| 20260505124040 | 16 | 178 | 4.8 | 4.8 | 0.00 | 0.20 | 0.20 | 74 | 1006.9 |
| 20260505123536 | 16 | 224 | 1.6 | 3.2 | 0.00 | 0.20 | 0.20 | 75 | 1006.7 |
| 20260505123033 | 16 | 158 | 3.2 | 3.2 | 0.00 | 0.20 | 0.20 | 74 | 1006.8 |
| 20260505122530 | 16 | 131 | 4.8 | 9.7 | 0.00 | 0.20 | 0.20 | 74 | 1006.7 |
| 20260505122027 | 16 | 176 | 3.2 | 3.2 | 0.00 | 0.20 | 0.20 | 73 | 1006.8 |
| 20260505121523 | 16 | 183 | 3.2 | 3.2 | 0.00 | 0.20 | 0.20 | 76 | 1006.7 |
| 20260505121020 | 16 | 357 | 0.0 | 0.0 | 0.00 | 0.20 | 0.20 | 74 | 1006.7 |
| 20260505120516 | 16 | 337 | 0.0 | 1.6 | 0.00 | 0.20 | 0.20 | 77 | 1006.4 |
| 20260505120012 | 16 | 127 | 1.6 | 1.6 | 0.00 | 0.20 | 0.20 | 75 | 1006.6 |
| 20260505115507 | 15 | 24 | 0.0 | 0.0 | 0.00 | 0.20 | 0.20 | 78 | 1006.6 |
| 20260505115005 | 15 | 189 | 3.2 | 4.8 | 0.00 | 0.20 | 0.20 | 77 | 1006.6 |
| 20260505114501 | 15 | 211 | 6.4 | 9.7 | 0.00 | 0.20 | 0.20 | 77 | 1006.8 |
| 20260505113958 | 15 | 283 | 1.6 | 3.2 | 0.00 | 0.20 | 0.20 | 78 | 1006.5 |
| 20260505113454 | 14 | 217 | 3.2 | 3.2 | 0.00 | 0.20 | 0.20 | 80 | 1006.7 |
| 20260505112950 | 13 | 214 | 4.8 | 4.8 | 0.00 | 0.20 | 0.20 | 81 | 1006.6 |
| 20260505112447 | 13 | 213 | 6.4 | 6.4 | 0.00 | 0.20 | 0.20 | 83 | 1006.7 |
| 20260505111944 | 13 | 315 | 0.0 | 1.6 | 0.00 | 0.20 | 0.20 | 84 | 1006.4 |
| 20260505111438 | 12 | 304 | 1.6 | 1.6 | 0.00 | 0.20 | 0.20 | 90 | 1006.4 |
| 20260505110935 | 11 | 348 | 0.0 | 0.0 | 0.00 | 0.20 | 0.20 | 97 | 1006.4 |
| 20260505110432 | 11 | 349 | 0.0 | 0.0 | 0.00 | 0.20 | 0.20 | 99 | 1006.3 |
| 20260505101903 | 9 | 354 | 0.0 | 0.0 | 0.00 | 0.20 | 0.20 | 99 | 1005.9 |
| 20260505101357 | 10 | 262 | 1.6 | 1.6 | 0.00 | 0.20 | 0.20 | 99 | 1006.0 |
| 20260505100854 | 9 | 332 | 0.0 | 0.0 | 0.00 | 0.20 | 0.20 | 99 | 1006.0 |
| 20260505100350 | 9 | 332 | 1.6 | 3.2 | 0.00 | 0.20 | 0.20 | 99 | 1006.0 |
| 20260505095846 | 9 | 83 | 0.0 | 0.0 | 0.00 | 0.20 | 0.20 | 99 | 1005.9 |
| 20260505095344 | 10 | 5 | 0.0 | 0.0 | 0.00 | 0.20 | 0.20 | 99 | 1006.0 |
| 20260505094839 | 10 | 317 | 0.0 | 0.0 | 0.00 | 0.20 | 0.20 | 99 | 1006.0 |
| 20260505094336 | 10 | 346 | 0.0 | 0.0 | 0.00 | 0.20 | 0.20 | 99 | 1005.7 |
| 20260505093832 | 10 | 338 | 0.0 | 0.0 | 0.00 | 0.20 | 0.20 | 99 | 1005.9 |
| 20260505093330 | 10 | 334 | 0.0 | 0.0 | 0.00 | 0.20 | 0.20 | 99 | 1005.7 |
| 20260505092826 | 10 | 337 | 0.0 | 0.0 | 0.00 | 0.20 | 0.20 | 99 | 1005.9 |
| 20260505092325 | 10 | 332 | 0.0 | 0.0 | 0.00 | 0.20 | 0.20 | 99 | 1005.8 |
| 20260505091822 | 10 | 304 | 0.0 | 0.0 | 0.00 | 0.20 | 0.20 | 99 | 1005.7 |
| 20260505091320 | 10 | 332 | 0.0 | 0.0 | 0.00 | 0.20 | 0.20 | 99 | 1005.7 |
| 20260505090818 | 10 | 292 | 0.0 | 0.0 | 0.00 | 0.20 | 0.20 | 99 | 1005.5 |
| 20260505090316 | 10 | 335 | 0.0 | 0.0 | 0.00 | 0.20 | 0.20 | 99 | 1005.7 |
| 20260505085812 | 10 | 287 | 0.0 | 0.0 | 0.00 | 0.20 | 0.20 | 99 | 1005.5 |
| 20260505085310 | 11 | 336 | 0.0 | 0.0 | 0.00 | 0.20 | 0.20 | 99 | 1005.6 |
| 20260505084808 | 11 | 343 | 0.0 | 0.0 | 0.00 | 0.20 | 0.20 | 99 | 1005.7 |
| 20260505084307 | 11 | 330 | 0.0 | 0.0 | 0.00 | 0.20 | 0.20 | 99 | 1005.7 |
| 20260505083803 | 11 | 329 | 0.0 | 0.0 | 0.00 | 0.20 | 0.20 | 98 | 1005.6 |
| 20260505083300 | 11 | 10 | 0.0 | 1.6 | 0.00 | 0.20 | 0.20 | 98 | 1005.6 |
| 20260505082756 | 11 | 88 | 0.0 | 1.6 | 0.00 | 0.20 | 0.20 | 98 | 1005.6 |
| 20260505082253 | 11 | 163 | 1.6 | 1.6 | 0.00 | 0.20 | 0.20 | 98 | 1005.4 |
| 20260505081749 | 11 | 115 | 1.6 | 1.6 | 0.00 | 0.20 | 0.20 | 98 | 1005.4 |
| 20260505081247 | 11 | 80 | 1.6 | 3.2 | 0.00 | 0.20 | 0.20 | 98 | 1005.5 |
| 20260505080743 | 12 | 60 | 1.6 | 1.6 | 0.00 | 0.20 | 0.20 | 98 | 1005.6 |
| 20260505080239 | 12 | 209 | 3.2 | 3.2 | 0.00 | 0.20 | 0.20 | 96 | 1005.5 |
| 20260505075735 | 12 | 251 | 1.6 | 1.6 | 0.00 | 0.20 | 0.20 | 94 | 1005.6 |
| 20260505075232 | 12 | 11 | 0.0 | 0.0 | 0.13 | 0.20 | 0.20 | 94 | 1005.4 |
| 20260505074729 | 12 | 131 | 3.2 | 3.2 | 0.61 | 0.20 | 0.20 | 92 | 1005.6 |
| 20260505074227 | 13 | 306 | 1.6 | 3.2 | 0.61 | 0.18 | 0.18 | 89 | 1006.2 |
| 20260505073724 | 13 | 291 | 3.2 | 4.8 | 0.61 | 0.10 | 0.10 | 84 | 1006.0 |
| 20260505073222 | 14 | 270 | 3.2 | 4.8 | 0.48 | 0.08 | 0.08 | 80 | 1006.0 |
| 20260505072718 | 15 | 283 | 4.8 | 6.4 | 0.00 | 0.00 | 0.00 | 72 | 1005.7 |
| 20260505072214 | 15 | 260 | 3.2 | 3.2 | 0.00 | 0.00 | 0.00 | 70 | 1005.3 |
| 20260505071709 | 14 | 136 | 3.2 | 3.2 | 0.00 | 0.00 | 0.00 | 71 | 1005.1 |